This is the latest recevied weather packets stored in our database for station/object AB0TJ. If no packets are shown the sender has not sent any weather packets the latest 10 day(s).
| Time | Temp. | Humidity | Pressure | Rain* | Wind** | Luminosity | Snow |
|---|---|---|---|---|---|---|---|
| 1777881884 | 18.33° C | 35% | 1011.2 hPa | 0 mm | - | 0 W/m² | - |
| 1777881397 | 17.78° C | 34% | 1011.3 hPa | 0 mm | - | 0 W/m² | - |
| 1777880820 | 17.78° C | 35% | 1011.5 hPa | 0 mm | - | 0 W/m² | - |
| 1777880279 | 18.33° C | 33% | 1011.2 hPa | 0 mm | - | 0 W/m² | - |
| 1777879789 | 18.33° C | 32% | 1011.4 hPa | 0 mm | - | 0 W/m² | - |
| 1777879189 | 18.33° C | 31% | 1011.3 hPa | 0 mm | - | 0 W/m² | - |
| 1777878693 | 18.33° C | 29% | 1011.3 hPa | 0 mm | - | 0 W/m² | - |
| 1777878122 | 18.33° C | 32% | 1011 hPa | 0 mm | - | 0 W/m² | - |
| 1777877624 | 17.78° C | 32% | 1011.1 hPa | 0 mm | - | 0 W/m² | - |
| 1777877139 | 17.22° C | 31% | 1011 hPa | 0 mm | - | 0 W/m² | - |
| 1777876629 | 17.22° C | 30% | 1010.8 hPa | 0 mm | - | 0 W/m² | - |
| 1777876038 | 17.22° C | 28% | 1010.7 hPa | 0 mm | - | 0 W/m² | - |
| 1777875550 | 16.67° C | 29% | 1010.6 hPa | 0 mm | - | 0 W/m² | - |
| 1777874979 | 15.56° C | 28% | 1010.6 hPa | 0 mm | - | 0 W/m² | - |
| 1777874494 | 14.44° C | 29% | 1010.6 hPa | 0 mm | - | 0 W/m² | - |
| 1777873909 | 13.89° C | 33% | 1010.5 hPa | 0 mm | - | 0 W/m² | - |
| 1777873352 | 13.89° C | 35% | 1010.3 hPa | 0 mm | - | 0 W/m² | - |
| 1777872824 | 13.89° C | 34% | 1010.3 hPa | 0 mm | - | 0 W/m² | - |
| 1777872313 | 13.89° C | 35% | 1010.5 hPa | 0 mm | - | 0 W/m² | - |
| 1777871769 | 14.44° C | 34% | 1010.4 hPa | 0 mm | - | 0 W/m² | - |
| 1777871229 | 14.44° C | 34% | 1010.6 hPa | 0 mm | - | 0 W/m² | - |
| 1777870669 | 14.44° C | 33% | 1010.5 hPa | 0 mm | - | 0 W/m² | - |
| 1777870094 | 15° C | 31% | 1010.7 hPa | 0 mm | - | 0 W/m² | - |
| 1777869509 | 15° C | 31% | 1010.7 hPa | 0 mm | - | 0 W/m² | - |
| 1777869024 | 15° C | 31% | 1010.8 hPa | 0 mm | - | 0 W/m² | - |
* Rain latest hour (hover to see other rain measurements)
** Current wind speed in m/s (hover to see current wind gust speed)